Tracking 18795 objects as of 22-August-2017
HD Live streaming from Space Station
objects crossing your sky now

EUTELSAT 2-F4

Track EUTELSAT 2-F4 now!
EUTELSAT 2-F4 is classified as:


NORAD ID: 22028
Int'l Code: 1992-041B
Perigee: 36,090.0 km
Apogee: 36,174.1 km
Inclination: 12.9 °
Period: 1,453.4 minutes
Semi major axis: 42503 km
RCS: 3.1622 m2 (large)
Launch date: July 9, 1992
Source: European Telecommunications Satellite Organization (EUTE)
Launch site: FRENCH GUIANA (FRGUI)
Your satellite tracking list
Your tracking list is empty





NASA's NSSDC Master Catalog

Two Line Element Set (TLE):
1 22028U 92041B   17231.29090363 -.00000142  00000-0  00000+0 0  9993
2 22028  12.9138  31.0498 0009893 193.1490 132.7936  0.99076857 84285
Source of the keplerian elements: AFSPC